Regional Weather Roundup
Issued by NWS

Home | Current Version | Previous Version | Graphics & Text | Print | Product List | Glossary On
Versions: 1 2 3 4 5 6 7 8 9 10 11 12 13 14 15 16 17 18 19 20 21 22 23 24 25 26 27 28 29 30 31 32 33 34 35 36 37 38 39 40 41 42 43 44 45 46 47 48 49 50
000
ASUS43 KOAX 260802
RWRNE

WEATHER ROUNDUP FOR NEBRASKA
NATIONAL WEATHER SERVICE OMAHA NE
300 AM CDT TUE MAY 26 2015

NOTES: SATELLITE DATA IS BEING USED TO AUGMENT CLOUD COVER ABOVE
       12000 FEET.
       "FAIR" INDICATES FEW OR NO CLOUDS BELOW 12,000 FEET WITH NO
       SIGNIFICANT WEATHER AND/OR OBSTRUCTIONS TO VISIBILITY.

  * THESE STATIONS DO NOT REPORT WEATHER SUCH AS RAIN...SNOW OR FOG.

NEZ001>004-019>022-054>056-260900-
NEBRASKA PANHANDLE

CITY           SKY/WX    TMP DP  RH WIND       PRES   REMARKS
SCOTTSBLUFF    PTCLDY    47  47 100 CALM      29.96F FOG
ALLIANCE       CLOUDY    51  50  96 N5        29.93F
CHADRON        CLOUDY    54  53  97 NE6       29.94F
SIDNEY         PTCLDY    46  44  93 NW7       29.97R
$$

NEZ057>060-069>072-079>082-260900-
SOUTHWEST NEBRASKA

CITY           SKY/WX    TMP DP  RH WIND       PRES   REMARKS
NORTH PLATTE   MOCLDY    51  49  92 NW8       29.89S
IMPERIAL       PTCLDY    52  48  86 NW8       29.92S
LEXINGTON      MOCLDY    56  54  91 W9        29.85R
MCCOOK         PTCLDY    53  49  86 NW13      29.88S
$$

NEZ005>010-023>029-035>040-094-260900-
NORTH CENTRAL NEBRASKA

CITY           SKY/WX    TMP DP  RH WIND       PRES   REMARKS
VALENTINE      CLOUDY    54  49  83 N7        29.90S
AINSWORTH      PTCLDY    53  53 100 N8        29.88S
BROKEN BOW     CLOUDY    58  55  90 N13       29.84R
ORD            CLOUDY    59  57  93 NW7       29.81R
$$

NEZ041-046>049-061>064-073>077-083>087-260900-
SOUTH CENTRAL NEBRASKA

CITY           SKY/WX    TMP DP  RH WIND       PRES   REMARKS
GRAND ISLAND   CLOUDY    58  56  93 NW12      29.79R
AURORA         CLOUDY    59  57  92 SE5       29.77S
HASTINGS       CLOUDY    58  55  90 N5        29.77S
KEARNEY *      CLOUDY    57  54  88 NW12      29.80S
$$

NEZ011>018-030>034-042>045-260900-
NORTHEAST NEBRASKA

CITY           SKY/WX    TMP DP  RH WIND       PRES   REMARKS
NORFOLK        CLOUDY    57  55  93 CALM      29.80R
ALBION         CLOUDY    57  55  92 N3        29.80R
BLAIR          CLOUDY    61  57  85 S6        29.78S
COLUMBUS *     CLOUDY   N/A N/A N/A MISG        N/A
FREMONT        CLOUDY    62  59  91 S3        29.77F
TEKAMAH        CLOUDY    63  60  90 CALM      29.78S
$$

NEZ050>053-065>068-078-088>093-260900-
SOUTHEAST NEBRASKA

CITY           SKY/WX    TMP DP  RH WIND       PRES   REMARKS
LINCOLN        CLOUDY    60  57  89 SE7       29.78S
OMAHA EPPLEY   CLOUDY    64  57  78 S8        29.78S
BEATRICE       DRIZZLE   61  56  85 S8        29.80S
FALLS CITY     LGT RAIN  61  60  97 S9        29.83S
NEBRASKA CITY  CLOUDY    61  60  97 S14G20    29.82R
PLATTSMOUTH    CLOUDY    62  56  81 S15       29.79S
$$

NEZ044-045-051>053-067-260900-
OMAHA AREA

CITY           SKY/WX    TMP DP  RH WIND       PRES   REMARKS
OMAHA EPPLEY   CLOUDY    64  57  78 S8        29.78S
BLAIR          CLOUDY    61  57  85 S6        29.78S
FREMONT        CLOUDY    62  59  91 S3        29.77F
OFFUTT AFB     CLOUDY    62  57  82 S7        29.78S
PLATTSMOUTH    CLOUDY    62  56  81 S15       29.79S
WAHOO          FAIR      61  59  92 CALM      29.77F
$$



USA.gov is the U.S. government's official web portal to all federal, state and local government web resources and services.